Location: Unspecified
(48.7670°N, 0.0000°E)
Time: 03:51:55
(UTC+00:00)

Altair - Pass Details

Date: 26 June 2019
Orbit: 1501 x 1683 km, 47.2° (Epoch: 12 October)

Event Time Altitude Azimuth Distance (km) Brightness Sun altitude
Rises 01:27:00 0° 290° (WNW) 4,837 10.1 -15.4°
Reaches altitude 10° 01:30:26 10° 282° (WNW) 3,873 9.5 -15.2°
Maximum altitude 01:39:00 35° 222° (SW) 2,475 8.1 -14.7°
Drops below altitude 10° 01:47:43 10° 162° (SSE) 3,935 9.2 -14.1°
Sets 01:51:16 0° 154° (SSE) 4,923 9.8 -13.9°
